Home   Weather   Suzhou   Past weeks
Flag for China

Past Weather in Suzhou, Jiangsu, China — Yesterday and Last 2 Weeks

Now
64 °F

Clear.


Feels Like: 64 °F
Forecast: 77 / 62 °F
Wind: 3 mph from North

Location: Shanghai Hongqiao Airport

Current Time: Oct 22, 2019 at 10:40:04 pm

Latest Report: Oct 22, 2019 at 10:00 pm


Visibility: 10 mi

Pressure: 30.01 "Hg

Humidity: 73%

Dew Point: 55 °F

Location of SuzhouLocation

Past Weather in Suzhou — Graph

°F

Suzhou Temperature Yesterday

Maximum temperature yesterday: 75 °F (at 1:00 pm)
Minimum temperature yesterday: 59 °F (at 3:00 am)
Average temperature yesterday: 67 °F

High & Low Weather Summary for the Past Weeks

 TemperatureHumidityPressure
High84 °F (Oct 10, 2:30 pm)94% (Oct 11, 11:30 pm)30.42 "Hg (Oct 11, 11:30 pm)
Low55 °F (Oct 16, 6:00 am)39% (Oct 19, 2:00 pm)29.89 "Hg (Oct 10, 12:30 pm)
Average69 °F68%30.12 "Hg
* Reported Oct 7 9:00 pm — Oct 22 9:00 pm, Suzhou. Weather by CustomWeather, © 2019

Note: Actual official high and low records may vary slightly from our data, if they occured in-between our weather recording intervals... More about our weather records

Advertising

Suzhou Weather History for the Previous 24 Hours

Scroll right to see more
 ConditionsComfort  
Time TempWeatherWind HumidityBarometerVisibility
9:00 pm
Tue, Oct 22
66 °FPassing clouds.3 mph68%30.01 "HgN/A
8:30 pm68 °FClear.6 mph64%30.01 "Hg10 mi
8:00 pm68 °FClear.6 mph64%30.01 "Hg10 mi
7:30 pm68 °FClear.8 mph64%30.01 "Hg10 mi
7:00 pm68 °FClear.8 mph64%30.01 "Hg10 mi
6:30 pm68 °FPassing clouds.8 mph64%30.01 "HgN/A
6:00 pm70 °FClear.6 mph60%29.98 "Hg10 mi
5:30 pm70 °FClear.6 mph57%29.98 "Hg10 mi
5:00 pm70 °FSunny.8 mph57%29.98 "Hg10 mi
4:30 pm72 °FSunny.10 mph53%29.98 "Hg10 mi
4:00 pm72 °FPassing clouds.8 mph53%29.98 "HgN/A
3:30 pm72 °FPartly sunny.8 mph53%29.98 "HgN/A
3:00 pm72 °FPartly sunny.8 mph53%29.98 "HgN/A
2:30 pm73 °FPartly sunny.8 mph50%29.98 "HgN/A
2:00 pm72 °FPassing clouds.6 mph53%29.98 "HgN/A
1:30 pm73 °FPassing clouds.6 mph50%29.98 "HgN/A
1:00 pm72 °FPartly sunny.6 mph53%30.01 "HgN/A
12:30 pm72 °FPartly sunny.3 mph53%30.01 "HgN/A
12:00 pm73 °FPartly sunny.10 mph50%30.01 "HgN/A
11:30 am73 °FPartly sunny.1 mph47%30.01 "HgN/A
11:00 am72 °FPartly sunny.6 mph53%30.01 "HgN/A
10:30 am72 °FScattered clouds.6 mph50%30.01 "HgN/A
10:00 am72 °FScattered clouds.6 mph50%30.01 "HgN/A
9:30 am72 °FScattered clouds.3 mph53%30.04 "HgN/A
9:00 am70 °FSunny.1 mph60%30.04 "Hg10 mi
8:30 am68 °FPassing clouds.3 mph64%30.04 "HgN/A
8:00 am68 °FClear.6 mph73%30.01 "Hg5 mi
7:30 am64 °FClear.3 mph78%30.04 "Hg5 mi
7:00 am61 °FClear.3 mph88%30.01 "Hg5 mi
6:30 am61 °FSunny.1 mph83%30.01 "Hg10 mi
6:00 am61 °FClear.1 mph83%30.01 "Hg10 mi
5:30 am59 °FClear.No wind88%30.01 "Hg10 mi
5:00 am61 °FClear.1 mph83%30.01 "Hg10 mi
4:30 am59 °FClear.3 mph88%29.98 "Hg10 mi
4:00 am61 °FClear.1 mph77%29.98 "Hg10 mi
3:30 am63 °FClear.3 mph77%30.01 "Hg10 mi
3:00 am61 °FClear.1 mph83%30.01 "Hg10 mi
2:30 am63 °FClear.1 mph77%30.01 "Hg10 mi
2:00 am61 °FClear.1 mph83%30.01 "Hg10 mi
1:30 am61 °FClear.1 mph83%30.01 "Hg10 mi
1:00 am61 °FClear.1 mph83%30.01 "Hg10 mi
12:30 am63 °FClear.1 mph77%30.04 "Hg10 mi
12:00 am63 °FClear.3 mph73%30.04 "Hg10 mi
11:30 pm
Mon, Oct 21
63 °FClear.3 mph73%30.04 "Hg10 mi
11:00 pm63 °FClear.3 mph73%30.04 "Hg10 mi
10:30 pm64 °FClear.1 mph68%30.04 "Hg10 mi
10:00 pm64 °FClear.3 mph68%30.04 "Hg10 mi
Weather by CustomWeather, © 2019

See weather overview